OBJECT G, 63297

Orbit data source: Space-Track

You're viewing an Uncataloged Satellite

Recently launched and/or uncataloged satellites may have evolving metadata. Metadata may include but not limited to: Owner, Maufacturer, Bus, Motor, and Mission.

OBJECT G, 63297 is a Chinese satellite in SSO that was launched on Mon, 17 Mar 2025 UTC via a GUSHENXING 1 launch vehicle from the Jiuquan Satellite Launch Center, China (JSC). Unknown objects in Earth's orbit typically refer to objects detected orbiting the Earth but have not yet been identified or cataloged. These objects could be anything from previously untracked satellites, spent rocket stages, debris from satellite collisions, or even natural meteoroids temporarily captured by Earth's gravity.

Loading next visibility...
Identifier
63297, 2025-055G
Orbit
SSO
Last TLE update
3 hours ago
Origin
Flag of CNZHWK/JIG (CN / PRC)
Manufacturer
ZHWK/HITSAT
Mission
Operational Commercial Imaging
Bus & Motor
ZK1, Unknown motor
Mass
~250 kg wet, ~250 kg dry
Launch date (UTC)
2025-03-17 (4 months ago)
Launch vehicle
GUSHENXING 1
Launch site
Jiuquan Satellite Launch Center, China (JSC)
Object type
Unknown
Shape & HBR
Box + 3 Pan, 6 m
Radar Cross Section
3.533 m², Medium (>0.1 m² and < 1m²)

Expand to show TLE details & history

TLE from 3 hours ago
0 OBJECT G
1 63297U 25055G   25186.86871122  .00008433  00000-0  48230-3 0  9999
2 63297  97.6122 321.7384 0009809 273.6560  86.3549 15.12881830 16660
Epoch: 2025-07-05T20:50Z
TLE epoch observation values (Epoch: 2025-07-05T20:50:56.649Z)
Latitude
-0.00001°
Longitude
84.90179°
Altitude
530.067 km
Speed
7.598 km/s
True Right ascension
21h 26m 57s
True Declination
0° 00' 00"
Sunlit
Object was in full shadow at epoch
Visualization orbit readout
Latitude
-33.79605°
Longitude
-100.09698°
Altitude
536.784 km
Speed
7.595 km/s
Apparent Right ascension
05h 13m 30s
Apparent Declination
-68° 19' 58"
Sunlit
Object is in daylight
Visualization observer readout
Local Sidereal Time
11:19:08
Azimuth
207.569° SW
Elevation
-37.106°
Doppler factor
1
Orbital elements
Apogee altitude
531.172 km
Perigee altitude
517.63 km
Semi-major axis
6,902.538 km
Eccentricity
0.00098
Inclination
97.6122°
RAAN
321.7384°
Arg. of periapsis
273.656°
True anomaly
Unknown
Mean anomaly
86.3549°
Eccentric anomaly
Unknown
Mean motion
3.78469 °/min
Orbital period
95.12 mins
BSTAR
0.0004823
Loading maneuver chart data...
Loading SW <> Apogee altitude chart data...
Loading historical data...
Loading historical data...
Loading historical data...
Loading historical data...
Loading historical data...
Loading historical data...
Loading historical data...

OBJECT G Visibility forecast

Observer location: undefined°, undefined°

Span
Click to sort rows by Start time (UTC) header in descending order
Start Az.
Max El. time (UTC)
Max El. Az.
Max El.
End time (UTC)
End Az.
5 mins2025-07-06 08:06:47.405Z108.886° ESE2025-07-06 08:08:47.405Z75.367° E17.379°2025-07-06 08:11:47.405Z23.773° NE
4 mins2025-07-06 09:41:47.405Z226.101° WSW2025-07-06 09:42:47.405Z250.787° W25.31°2025-07-06 09:45:47.405Z317.678° NNW
5 mins2025-07-06 21:14:47.405Z49.586° ENE2025-07-06 21:16:47.405Z93.77° ESE24.664°2025-07-06 21:19:47.405Z152.829° SSE
|